Time,TemperatureF,DewpointF,PressureIn,WindDirection,WindDirectionDegrees,WindSpeedMPH,WindSpeedGustMPH,Humidity,HourlyPrecipIn,Conditions,Clouds,dailyrainin,SoftwareType,DateUTC
2013-05-23 00:03:00,53.0,52.0,-100.00,ENE,70,0.0,1.0,98,0.00,,,-99.99,,2013-05-23 04:03:00,
2013-05-23 00:12:00,53.0,53.0,-100.00,South,190,2.0,3.0,98,0.00,,,-99.99,,2013-05-23 04:12:00,
2013-05-23 00:23:00,53.0,52.0,-100.00,SSE,160,1.0,5.0,98,0.00,,,-99.99,,2013-05-23 04:23:00,
2013-05-23 00:33:00,53.0,52.0,-100.00,ENE,75,1.0,3.0,98,0.00,,,-99.99,,2013-05-23 04:33:00,
2013-05-23 00:43:00,53.0,52.0,-100.00,East,80,0.0,2.0,98,0.00,,,-99.99,,2013-05-23 04:43:00,
2013-05-23 00:52:00,53.0,52.0,-100.00,ESE,120,0.0,1.0,98,0.00,,,-99.99,,2013-05-23 04:52:00,
2013-05-23 01:02:00,53.0,52.0,-100.00,East,90,1.0,2.0,98,0.00,,,-99.99,,2013-05-23 05:02:00,
2013-05-23 01:12:00,53.0,52.0,-100.00,South,190,1.0,2.0,98,0.00,,,-99.99,,2013-05-23 05:12:00,
2013-05-23 01:22:00,53.0,52.0,-100.00,East,80,0.0,1.0,98,0.00,,,-99.99,,2013-05-23 05:22:00,
2013-05-23 01:32:00,53.0,52.0,-100.00,East,80,0.0,1.0,98,0.00,,,-99.99,,2013-05-23 05:32:00,
2013-05-23 01:43:00,53.0,52.0,-100.00,SSE,150,0.0,2.0,98,0.00,,,-99.99,,2013-05-23 05:43:00,
2013-05-23 01:52:00,53.0,52.0,-100.00,East,100,0.0,1.0,98,0.00,,,-99.99,,2013-05-23 05:52:00,
2013-05-23 02:02:00,53.0,52.0,-100.00,East,80,1.0,1.0,98,0.00,,,-99.99,,2013-05-23 06:02:00,
2013-05-23 02:12:00,53.0,52.0,-100.00,SE,135,0.0,2.0,98,0.00,,,-99.99,,2013-05-23 06:12:00,
2013-05-23 02:22:00,53.0,52.0,-100.00,South,170,0.0,2.0,98,0.00,,,-99.99,,2013-05-23 06:22:00,
2013-05-23 02:32:00,53.0,52.0,-100.00,NNE,15,0.0,1.0,98,0.00,,,-99.99,,2013-05-23 06:32:00,
2013-05-23 02:42:00,53.0,53.0,-100.00,NNE,30,0.0,1.0,98,0.00,,,-99.99,,2013-05-23 06:42:00,
2013-05-23 02:52:00,53.0,52.0,-100.00,East,100,0.0,2.0,98,0.00,,,-99.99,,2013-05-23 06:52:00,
2013-05-23 03:02:00,53.0,52.0,-100.00,ESE,110,1.0,1.0,98,0.00,,,-99.99,,2013-05-23 07:02:00,
2013-05-23 03:11:00,53.0,52.0,-100.00,SSW,195,1.0,3.0,98,0.00,,,-99.99,,2013-05-23 07:11:00,
2013-05-23 03:22:00,53.0,52.0,-100.00,ENE,60,0.0,2.0,98,0.00,,,-99.99,,2013-05-23 07:22:00,
2013-05-23 03:32:00,53.0,52.0,-100.00,South,170,1.0,2.0,98,0.00,,,-99.99,,2013-05-23 07:32:00,
2013-05-23 03:42:00,53.0,52.0,-100.00,ENE,75,1.0,1.0,98,0.00,,,-99.99,,2013-05-23 07:42:00,
2013-05-23 03:59:00,53.0,52.0,-100.00,ENE,65,1.0,2.0,98,0.00,,,-99.99,,2013-05-23 07:59:00,
2013-05-23 04:12:00,53.0,52.0,-100.00,South,180,0.0,2.0,98,0.00,,,-99.99,,2013-05-23 08:12:00,
2013-05-23 04:22:00,53.0,52.0,-100.00,South,190,1.0,4.0,98,0.00,,,-99.99,,2013-05-23 08:22:00,
2013-05-23 04:32:00,53.0,52.0,-100.00,NE,35,1.0,2.0,98,0.00,,,-99.99,,2013-05-23 08:32:00,
2013-05-23 04:42:00,53.0,52.0,-100.00,South,185,2.0,4.0,98,0.00,,,-99.99,,2013-05-23 08:42:00,
2013-05-23 04:51:00,53.0,52.0,-100.00,SSE,165,1.0,4.0,98,0.00,,,-99.99,,2013-05-23 08:51:00,
2013-05-23 05:02:00,53.0,52.0,-100.00,SSE,150,0.0,2.0,98,0.00,,,-99.99,,2013-05-23 09:02:00,
2013-05-23 05:11:00,53.0,52.0,-100.00,SSE,150,0.0,1.0,98,0.00,,,-99.99,,2013-05-23 09:11:00,
2013-05-23 05:22:00,53.0,52.0,-100.00,East,100,0.0,2.0,98,0.00,,,-99.99,,2013-05-23 09:22:00,
2013-05-23 05:33:00,53.0,52.0,-100.00,SSE,165,0.0,1.0,98,0.00,,,-99.99,,2013-05-23 09:33:00,
2013-05-23 05:42:00,53.0,52.0,-100.00,East,80,0.0,2.0,98,0.00,,,-99.99,,2013-05-23 09:42:00,
2013-05-23 05:53:00,53.0,52.0,-100.00,ESE,120,0.0,2.0,98,0.00,,,-99.99,,2013-05-23 09:53:00,
2013-05-23 06:03:00,53.0,52.0,-100.00,SSE,150,0.0,1.0,98,0.00,,,-99.99,,2013-05-23 10:03:00,
2013-05-23 06:13:00,53.0,52.0,-100.00,ENE,70,0.0,2.0,98,0.00,,,-99.99,,2013-05-23 10:13:00,
2013-05-23 06:22:00,53.0,52.0,-100.00,NNE,30,1.0,2.0,98,0.00,,,-99.99,,2013-05-23 10:22:00,
2013-05-23 06:32:00,53.0,53.0,-100.00,East,100,0.0,1.0,98,0.00,,,-99.99,,2013-05-23 10:32:00,
2013-05-23 06:42:00,53.0,53.0,-100.00,East,80,1.0,2.0,98,0.00,,,-99.99,,2013-05-23 10:42:00,
2013-05-23 06:52:00,53.0,53.0,-100.00,East,80,0.0,3.0,98,0.00,,,-99.99,,2013-05-23 10:52:00,
2013-05-23 07:02:00,53.0,53.0,-100.00,ENE,65,1.0,4.0,98,0.00,,,-99.99,,2013-05-23 11:02:00,
2013-05-23 07:12:00,53.0,53.0,-100.00,ENE,70,2.0,4.0,98,0.00,,,-99.99,,2013-05-23 11:12:00,
2013-05-23 07:22:00,53.0,53.0,-100.00,SSE,150,0.0,2.0,98,0.00,,,-99.99,,2013-05-23 11:22:00,
2013-05-23 07:32:00,54.0,53.0,-100.00,South,180,1.0,2.0,98,0.00,,,-99.99,,2013-05-23 11:32:00,
2013-05-23 07:42:00,54.0,53.0,-100.00,ENE,75,1.0,2.0,98,0.00,,,-99.99,,2013-05-23 11:42:00,
2013-05-23 07:52:00,54.0,53.0,-100.00,East,80,0.0,2.0,98,0.00,,,-99.99,,2013-05-23 11:52:00,
2013-05-23 08:02:00,54.0,53.0,-100.00,East,80,1.0,3.0,98,0.00,,,-99.99,,2013-05-23 12:02:00,
2013-05-23 08:12:00,54.0,53.0,-100.00,SE,135,1.0,3.0,98,0.00,,,-99.99,,2013-05-23 12:12:00,
2013-05-23 08:22:00,54.0,53.0,-100.00,South,180,0.0,3.0,98,0.00,,,-99.99,,2013-05-23 12:22:00,
2013-05-23 08:32:00,54.0,54.0,-100.00,SE,145,1.0,4.0,98,0.00,,,-99.99,,2013-05-23 12:32:00,
2013-05-23 08:42:00,54.0,54.0,-100.00,East,80,1.0,3.0,98,0.00,,,-99.99,,2013-05-23 12:42:00,
2013-05-23 08:52:00,54.0,54.0,-100.00,East,90,1.0,2.0,98,0.00,,,-99.99,,2013-05-23 12:52:00,
2013-05-23 09:02:00,54.0,54.0,-100.00,NE,45,2.0,4.0,98,0.00,,,-99.99,,2013-05-23 13:02:00,
2013-05-23 09:11:00,55.0,54.0,-100.00,East,80,0.0,5.0,98,0.00,,,-99.99,,2013-05-23 13:11:00,
2013-05-23 09:22:00,55.0,54.0,-100.00,East,80,1.0,2.0,98,0.00,,,-99.99,,2013-05-23 13:22:00,
2013-05-23 09:32:00,55.0,54.0,-100.00,NE,45,0.0,2.0,98,0.00,,,-99.99,,2013-05-23 13:32:00,
2013-05-23 09:42:00,55.0,54.0,-100.00,SE,135,0.0,2.0,98,0.00,,,-99.99,,2013-05-23 13:42:00,
2013-05-23 09:52:00,55.0,55.0,-100.00,ENE,75,1.0,4.0,98,0.00,,,-99.99,,2013-05-23 13:52:00,
2013-05-23 10:02:00,55.0,55.0,-100.00,SE,125,0.0,1.0,98,0.00,,,-99.99,,2013-05-23 14:02:00,
2013-05-23 10:11:00,56.0,55.0,-100.00,SSE,155,0.0,5.0,98,0.00,,,-99.99,,2013-05-23 14:11:00,
2013-05-23 10:21:00,56.0,55.0,-100.00,South,180,1.0,4.0,98,0.00,,,-99.99,,2013-05-23 14:21:00,
2013-05-23 10:32:00,56.0,56.0,-100.00,South,185,2.0,6.0,98,0.00,,,-99.99,,2013-05-23 14:32:00,
2013-05-23 10:42:00,57.0,56.0,-100.00,SSW,195,6.0,7.0,98,0.00,,,-99.99,,2013-05-23 14:42:00,
2013-05-23 10:52:00,57.0,57.0,-100.00,South,180,1.0,5.0,98,0.00,,,-99.99,,2013-05-23 14:52:00,
2013-05-23 11:01:00,58.0,58.0,-100.00,East,90,1.0,6.0,98,0.00,,,-99.99,,2013-05-23 15:01:00,
2013-05-23 11:11:00,58.0,58.0,-100.00,SSW,200,2.0,4.0,98,0.00,,,-99.99,,2013-05-23 15:11:00,
2013-05-23 11:22:00,58.0,58.0,-100.00,ENE,75,1.0,6.0,98,0.78,,,-99.99,,2013-05-23 15:22:00,
2013-05-23 11:33:00,60.0,59.0,-100.00,South,180,3.0,10.0,98,0.00,,,-99.99,,2013-05-23 15:33:00,
2013-05-23 11:43:00,62.0,61.0,-100.00,South,190,4.0,8.0,98,0.00,,,-99.99,,2013-05-23 15:43:00,
2013-05-23 11:53:00,62.0,61.0,-100.00,SSW,195,4.0,7.0,98,0.00,,,-99.99,,2013-05-23 15:53:00,
2013-05-23 12:03:00,63.0,63.0,-100.00,SSW,200,3.0,6.0,98,0.00,,,-99.99,,2013-05-23 16:03:00,
2013-05-23 12:13:00,64.0,63.0,-100.00,SSW,200,4.0,6.0,98,0.00,,,-99.99,,2013-05-23 16:13:00,
2013-05-23 12:23:00,65.0,64.0,-100.00,SSW,200,4.0,8.0,98,0.00,,,-99.99,,2013-05-23 16:23:00,
2013-05-23 12:34:00,66.0,65.0,-100.00,South,185,4.0,7.0,98,0.00,,,-99.99,,2013-05-23 16:34:00,
2013-05-23 12:42:00,67.0,66.0,-100.00,SSW,205,4.0,7.0,98,0.00,,,-99.99,,2013-05-23 16:42:00,
2013-05-23 12:52:00,69.0,68.0,-100.00,South,185,4.0,8.0,98,0.00,,,-99.99,,2013-05-23 16:52:00,
2013-05-23 13:03:00,70.0,70.0,-100.00,SW,230,4.0,7.0,98,0.00,,,-99.99,,2013-05-23 17:03:00,
2013-05-23 13:12:00,71.0,71.0,-100.00,South,180,4.0,12.0,98,0.00,,,-99.99,,2013-05-23 17:12:00,
2013-05-23 13:23:00,72.0,71.0,-100.00,SSW,195,3.0,11.0,96,0.00,,,-99.99,,2013-05-23 17:23:00,
2013-05-23 13:33:00,74.0,71.0,-100.00,SW,215,4.0,11.0,91,0.00,,,-99.99,,2013-05-23 17:33:00,
2013-05-23 13:43:00,74.0,69.0,-100.00,SSW,195,6.0,14.0,83,0.00,,,-99.99,,2013-05-23 17:43:00,
2013-05-23 13:52:00,74.0,69.0,-100.00,South,180,4.0,10.0,83,0.00,,,-99.99,,2013-05-23 17:52:00,
2013-05-23 14:02:00,74.0,68.0,-100.00,SSW,195,7.0,12.0,81,0.00,,,-99.99,,2013-05-23 18:02:00,
2013-05-23 14:11:00,75.0,69.0,-100.00,SW,215,7.0,12.0,80,0.00,,,-99.99,,2013-05-23 18:11:00,
2013-05-23 14:22:00,75.0,68.0,-100.00,SSW,210,6.0,13.0,79,0.00,,,-99.99,,2013-05-23 18:22:00,
2013-05-23 14:32:00,75.0,68.0,-100.00,South,190,6.0,11.0,78,0.00,,,-99.99,,2013-05-23 18:32:00,
2013-05-23 14:42:00,76.0,68.0,-100.00,SW,235,5.0,11.0,78,0.00,,,-99.99,,2013-05-23 18:42:00,
2013-05-23 14:52:00,75.0,68.0,-100.00,SW,225,7.0,12.0,77,0.00,,,-99.99,,2013-05-23 18:52:00,
2013-05-23 15:02:00,76.0,67.0,-100.00,SSW,210,6.0,16.0,75,0.00,,,-99.99,,2013-05-23 19:02:00,
2013-05-23 15:11:00,76.0,67.0,-100.00,South,190,6.0,14.0,75,0.00,,,-99.99,,2013-05-23 19:11:00,
2013-05-23 15:21:00,77.0,67.0,-100.00,SSW,210,6.0,10.0,72,0.00,,,-99.99,,2013-05-23 19:21:00,
2013-05-23 15:32:00,77.0,67.0,-100.00,SSW,210,9.0,21.0,70,0.00,,,-99.99,,2013-05-23 19:32:00,
2013-05-23 15:42:00,77.0,67.0,-100.00,WSW,245,9.0,15.0,71,0.00,,,-99.99,,2013-05-23 19:42:00,
2013-05-23 15:52:00,76.0,66.0,-100.00,SSW,200,9.0,18.0,71,0.00,,,-99.99,,2013-05-23 19:52:00,
2013-05-23 16:02:00,75.0,66.0,-100.00,WSW,250,6.0,17.0,72,0.00,,,-99.99,,2013-05-23 20:02:00,
2013-05-23 16:12:00,75.0,66.0,-100.00,South,180,5.0,15.0,73,0.00,,,-99.99,,2013-05-23 20:12:00,
2013-05-23 16:22:00,75.0,66.0,-100.00,WSW,250,6.0,17.0,73,0.00,,,-99.99,,2013-05-23 20:22:00,
2013-05-23 16:32:00,75.0,66.0,-100.00,West,280,6.0,11.0,73,0.00,,,-99.99,,2013-05-23 20:32:00,
2013-05-23 16:42:00,75.0,66.0,-100.00,West,260,6.0,12.0,74,0.00,,,-99.99,,2013-05-23 20:42:00,
2013-05-23 16:52:00,75.0,66.0,-100.00,West,265,2.0,11.0,74,0.00,,,-99.99,,2013-05-23 20:52:00,
2013-05-23 17:01:00,74.0,66.0,-100.00,WSW,245,6.0,15.0,74,0.00,,,-99.99,,2013-05-23 21:01:00,
2013-05-23 17:11:00,74.0,66.0,-100.00,SW,235,4.0,14.0,75,0.00,,,-99.99,,2013-05-23 21:11:00,
2013-05-23 17:22:00,74.0,66.0,-100.00,SW,235,3.0,7.0,76,0.00,,,-99.99,,2013-05-23 21:22:00,
2013-05-23 17:33:00,74.0,66.0,-100.00,SSW,210,3.0,8.0,77,0.00,,,-99.99,,2013-05-23 21:33:00,
2013-05-23 17:43:00,74.0,67.0,-100.00,SSW,200,3.0,7.0,77,0.00,,,-99.99,,2013-05-23 21:43:00,
2013-05-23 17:53:00,73.0,67.0,-100.00,South,190,4.0,7.0,79,0.00,,,-99.99,,2013-05-23 21:53:00,
2013-05-23 18:03:00,73.0,67.0,-100.00,SSW,210,3.0,7.0,81,0.03,,,-99.99,,2013-05-23 22:03:00,
2013-05-23 18:12:00,72.0,67.0,-100.00,North,0,2.0,7.0,84,0.35,,,-99.99,,2013-05-23 22:12:00,
2013-05-23 18:23:00,72.0,68.0,-100.00,SSW,205,1.0,6.0,87,0.00,,,-99.99,,2013-05-23 22:23:00,
2013-05-23 18:33:00,71.0,67.0,-100.00,SSW,205,4.0,11.0,88,0.11,,,-99.99,,2013-05-23 22:33:00,
2013-05-23 18:42:00,71.0,68.0,-100.00,WSW,245,3.0,7.0,89,0.00,,,-99.99,,2013-05-23 22:42:00,
2013-05-23 18:52:00,71.0,67.0,-100.00,SSW,210,5.0,14.0,88,0.00,,,-99.99,,2013-05-23 22:52:00,
2013-05-23 19:02:00,71.0,67.0,-100.00,West,265,7.0,15.0,86,0.00,,,-99.99,,2013-05-23 23:02:00,
2013-05-23 19:12:00,71.0,67.0,-100.00,WSW,240,6.0,10.0,85,0.00,,,-99.99,,2013-05-23 23:12:00,
2013-05-23 19:22:00,71.0,67.0,-100.00,WSW,245,3.0,13.0,85,0.00,,,-99.99,,2013-05-23 23:22:00,
2013-05-23 19:32:00,71.0,66.0,-100.00,WSW,245,5.0,8.0,85,0.00,,,-99.99,,2013-05-23 23:32:00,
2013-05-23 19:42:00,71.0,66.0,-100.00,SSW,205,4.0,11.0,85,0.00,,,-99.99,,2013-05-23 23:42:00,
2013-05-23 19:52:00,71.0,66.0,-100.00,West,260,6.0,13.0,84,0.00,,,-99.99,,2013-05-23 23:52:00,
2013-05-23 20:01:00,71.0,65.0,-100.00,SSW,210,4.0,11.0,83,0.00,,,-99.99,,2013-05-24 00:01:00,
2013-05-23 20:12:00,71.0,65.0,-100.00,South,190,5.0,10.0,83,0.00,,,-99.99,,2013-05-24 00:12:00,
2013-05-23 20:22:00,71.0,65.0,-100.00,SSW,200,6.0,12.0,82,0.00,,,-99.99,,2013-05-24 00:22:00,
2013-05-23 20:32:00,70.0,65.0,-100.00,SSW,200,6.0,12.0,83,0.00,,,-99.99,,2013-05-24 00:32:00,
2013-05-23 20:42:00,70.0,65.0,-100.00,South,190,6.0,11.0,83,0.00,,,-99.99,,2013-05-24 00:42:00,
2013-05-23 20:52:00,70.0,65.0,-100.00,SSW,200,7.0,13.0,82,0.00,,,-99.99,,2013-05-24 00:52:00,
2013-05-23 21:01:00,70.0,64.0,-100.00,SSW,205,6.0,13.0,82,0.00,,,-99.99,,2013-05-24 01:01:00,
2013-05-23 21:12:00,70.0,64.0,-100.00,SSW,210,9.0,15.0,81,0.00,,,-99.99,,2013-05-24 01:12:00,
2013-05-23 21:22:00,70.0,64.0,-100.00,SSW,195,8.0,15.0,81,0.00,,,-99.99,,2013-05-24 01:22:00,
2013-05-23 21:32:00,70.0,64.0,-100.00,SW,225,6.0,16.0,81,0.00,,,-99.99,,2013-05-24 01:32:00,
2013-05-23 21:42:00,70.0,64.0,-100.00,SSW,210,9.0,20.0,82,0.00,,,-99.99,,2013-05-24 01:42:00,
2013-05-23 21:52:00,70.0,64.0,-100.00,SSW,210,8.0,12.0,82,0.00,,,-99.99,,2013-05-24 01:52:00,
2013-05-23 22:02:00,70.0,64.0,-100.00,SSW,210,6.0,12.0,82,0.00,,,-99.99,,2013-05-24 02:02:00,
2013-05-23 22:12:00,70.0,64.0,-100.00,SSW,205,6.0,11.0,82,0.00,,,-99.99,,2013-05-24 02:12:00,
2013-05-23 22:22:00,69.0,64.0,-100.00,SSW,195,6.0,13.0,82,0.00,,,-99.99,,2013-05-24 02:22:00,
2013-05-23 22:32:00,69.0,64.0,-100.00,SSW,210,6.0,16.0,82,0.00,,,-99.99,,2013-05-24 02:32:00,
2013-05-23 22:42:00,69.0,64.0,-100.00,SSW,200,6.0,16.0,83,0.00,,,-99.99,,2013-05-24 02:42:00,
2013-05-23 22:52:00,69.0,64.0,-100.00,South,190,6.0,11.0,84,0.01,,,-99.99,,2013-05-24 02:52:00,
2013-05-23 23:02:00,68.0,64.0,-100.00,South,190,7.0,18.0,87,0.07,,,-99.99,,2013-05-24 03:02:00,
2013-05-23 23:11:00,67.0,64.0,-100.00,SSW,205,7.0,13.0,91,0.21,,,-99.99,,2013-05-24 03:11:00,
2013-05-23 23:22:00,66.0,64.0,-100.00,SSW,210,6.0,12.0,93,0.08,,,-99.99,,2013-05-24 03:22:00,
2013-05-23 23:33:00,66.0,65.0,-100.00,SSW,200,5.0,11.0,95,0.01,,,-99.99,,2013-05-24 03:33:00,
2013-05-23 23:42:00,66.0,65.0,-100.00,South,190,4.0,10.0,96,0.14,,,-99.99,,2013-05-24 03:42:00,
2013-05-23 23:53:00,66.0,65.0,-100.00,SSW,200,6.0,9.0,96,0.14,,,-99.99,,2013-05-24 03:53:00,